Regional Weather Roundup
Issued by NWS Kansas City/Pleasant Hill, MO

Home | Current Version | Previous Version | Text Only | Print | Product List | Glossary On
Versions: 1 2 3 4 5 6 7 8 9 10 11 12 13 14 15 16 17 18 19 20 21 22 23 24 25 26 27 28 29 30 31 32 33 34 35 36 37 38 39 40 41 42 43 44 45 46 47 48 49 50
000
ASUS43 KEAX 230211
RWREAX

WEATHER ROUNDUP FOR EASTERN KANSAS AND NORTHWEST MISSOURI
NATIONAL WEATHER SERVICE KANSAS CITY/PLEASANT HILL MO
900 PM CDT MON SEP 22 2014

KSZ040-057-103>105-MOZ028-029-037-043-230300-
...KANSAS CITY METROPOLITAN AREA...

CITY           SKY/WX    TMP DP  RH WIND       PRES   REMARKS
K.C. INTL      MOCLDY    63  52  67 SE9       30.23R
K.C. DOWNTOWN  PTCLDY    68  52  56 SE3       30.22R
LEES SUMMIT    MOCLDY    65  51  60 SE5       30.24R
OLATHE - IXD   PTCLDY    63  53  70 E5        30.24R
OLATHE - OJC   PTCLDY    63  52  67 SE3       30.23R
LAWRENCE       PTCLDY    56  51  84 SE5       30.22S

$$

MOZ001>008-011>017-020>025-030>033-038>040-044>046-053-054-230300-
...NORTHERN AND CENTRAL MISSOURI...

CITY           SKY/WX    TMP DP  RH WIND       PRES   REMARKS
ST. JOSEPH     MOCLDY    61  54  77 S6        30.22R
MOSBY          PTCLDY    59  55  88 CALM      30.23S
WHITEMAN AFB   CLEAR     59  52  76 SE2       30.24R
CLINTON        PTCLDY    57  55  94 CALM      30.24S
SEDALIA        PTCLDY    62  51  67 E5        30.25R
WARSAW         NOT AVBL
MARSHALL       PTCLDY    64  52  63 E6        30.25S
CHILLICOTHE      N/A     57  54  89 CALM      30.26R
MOBERLY        CLEAR     55  48  76 E5        30.26S
KIRKSVILLE     CLEAR     53  32  44 CALM      30.27R

$$

MOZ041-047>049-056>058-063>065-088>090-097-230300-
...EASTERN AND SOUTHERN MISSOURI...

CITY           SKY/WX    TMP DP  RH WIND       PRES   REMARKS
ST. LOUIS INTL PTCLDY    63  49  60 CALM      30.26R
SPIRIT OF STL  CLEAR     56  52  86 CALM      30.25R
COLUMBIA       CLEAR     60  49  66 E6        30.26R
JEFFERSON CITY CLEAR     59  51  75 CALM      30.25R
MEXICO         CLEAR     55  52  88 CALM      30.26R
HANNIBAL       PTCLDY    55  46  71 CALM      30.27S
ROLLA          CLEAR     55  47  74 CALM      30.25R
LEBANON        CLEAR     57  48  72 NE3       30.26R
OSAGE BEACH    CLEAR     55  48  76 NE3       30.25R
SPRINGFIELD    PTCLDY    60  50  69 NE6       30.24R
BRANSON        CLEAR     57  52  82 CALM      30.25R
NEVADA         PTCLDY    59  54  82 E5        30.24S
JOPLIN         PTCLDY    63  55  75 E6        30.23R
WEST PLAINS    CLEAR     57  51  80 CALM      30.25R

$$

IAZ060-094-KSZ022-034>040-054-083-096-NEZ052-066-093-230300-
...KANSAS...SOUTHEAST NEBRASKA AND IOWA...

CITY           SKY/WX    TMP DP  RH WIND       PRES   REMARKS
TOPEKA         PTCLDY    63  53  70 SE5       30.22R
MANHATTAN      MOCLDY    64  52  64 S6        30.19R
EMPORIA        MOCLDY    62  53  72 SE6       30.22R
CHANUTE        PTCLDY    61  54  77 E3        30.22R
WICHITA        MOCLDY    69  47  45 SE12      30.19S
OMAHA          MOCLDY    63  51  65 S6        30.19R
LINCOLN        MOCLDY    64  50  60 S7        30.19R
FALLS CITY     MOCLDY    63  52  67 S6        30.20R
LAMONI         PTCLDY    62  52  69 SE7       30.23S
DES MOINES     PTCLDY    65  51  60 SE7       30.22S

$$



USA.gov is the U.S. government's official web portal to all federal, state and local government web resources and services.